Location: Iowa City
(41.6610°N, 91.5300°W)
Time: 07:30:55
(UTC-05:00)

ISS - Visible Passes

Search period start: 30 May 2016 00:00
Search period end: 09 June 2016 00:00
Orbit: 402 x 404 km, 51.6° (Epoch: 30 May)

Date Brightness Start Highest point End Pass type
(mag) Time Alt. Az. Time Alt. Az. Time Alt. Az.
30 May 0.0 00:17:17 10° NW 00:19:09 14° N 00:21:01 10° NE visible
30 May -0.8 01:53:50 10° NW 01:56:29 22° NNE 01:59:08 10° ENE visible
30 May -3.5 03:29:57 10° WNW 03:33:12 72° SW 03:36:26 10° SE visible
30 May -1.6 21:45:53 10° W 21:48:57 36° NNW 21:52:00 10° NE visible
30 May -0.1 23:24:04 10° NW 23:26:05 15° N 23:28:07 10° NNE visible
31 May -0.4 01:01:11 10° NNW 01:03:29 17° NNE 01:05:47 10° ENE visible
31 May -1.2 02:37:12 10° NW 02:38:25 20° NW 02:38:25 20° NW visible
31 May -0.3 22:30:44 10° WNW 22:33:03 18° NNW 22:35:22 10° NNE visible
01 Jun -0.2 00:08:26 10° NNW 00:10:26 15° N 00:12:27 10° NE visible
01 Jun -1.0 01:44:33 10° NW 01:46:06 23° NNW 01:46:06 23° NNW visible
01 Jun -0.7 21:37:22 10° WNW 21:40:02 22° NNW 21:42:42 10° NE visible
01 Jun -0.2 23:15:30 10° NW 23:17:22 14° N 23:19:14 10° NE visible
02 Jun -1.0 00:51:54 10° NW 00:54:27 24° NNE 00:54:27 24° NNE visible
02 Jun -0.3 22:22:19 10° NW 22:24:17 15° N 22:26:14 10° NNE visible
02 Jun -0.7 23:59:15 10° NNW 00:01:40 19° NNE 00:03:00 15° NE visible
03 Jun -0.4 01:35:17 10° NW 01:35:35 12° NW 01:35:35 12° NW visible
03 Jun -0.4 21:29:00 10° NW 21:31:13 17° NNW 21:33:26 10° NNE visible
03 Jun -0.4 23:06:32 10° NNW 23:08:37 16° N 23:10:42 10° NE visible
04 Jun -1.1 00:42:35 10° NW 00:44:17 25° NNW 00:44:17 25° NNW visible
04 Jun -0.4 22:13:38 10° NNW 22:15:32 14° N 22:17:25 10° NE visible
04 Jun -1.4 23:49:56 10° NW 23:52:48 27° NNE 23:53:03 26° NNE visible
05 Jun -0.4 21:20:31 10° NW 21:22:26 14° N 21:24:21 10° NNE visible
05 Jun -0.9 22:57:17 10° NNW 22:59:48 20° NNE 23:01:52 12° ENE visible
06 Jun -0.9 00:33:20 10° NW 00:34:28 20° NW 00:34:28 20° NW visible
06 Jun -0.6 22:04:34 10° NNW 22:06:45 16° N 22:08:55 10° NE visible
06 Jun -2.2 23:40:36 10° NW 23:43:20 43° N 23:43:20 43° N visible
07 Jun -0.5 21:11:43 10° NNW 21:13:39 15° N 21:15:35 10° NE visible
07 Jun -1.7 22:47:56 10° NW 22:50:52 30° NNE 22:52:14 21° ENE visible
08 Jun -0.6 00:24:17 10° WNW 00:24:49 14° WNW 00:24:49 14° WNW visible
08 Jun -1.1 21:55:16 10° NW 21:57:53 21° NNE 22:00:30 10° ENE visible
08 Jun -2.4 23:31:22 10° WNW 23:33:46 45° WNW 23:33:46 45° WNW visible
